TimePST,TemperatureF,Dew PointF,Humidity,Sea Level PressureIn,VisibilityMPH,Wind Direction,Wind SpeedMPH,Gust SpeedMPH,PrecipitationIn,Events,Conditions,WindDirDegrees,DateUTC
12:03 AM,53.6,53.6,100,30.09,6.0,West,8.1,-,N/A,,Mostly Cloudy,270,1998-01-11 08:03:00
12:56 AM,53.1,53.1,100,30.09,10.0,West,4.6,-,0.01,,Mostly Cloudy,260,1998-01-11 08:56:00
1:56 AM,53.1,51.1,93,30.11,10.0,WSW,9.2,-,N/A,,Mostly Cloudy,240,1998-01-11 09:56:00
2:56 AM,52.0,51.1,97,30.11,10.0,SSW,3.5,-,N/A,,Overcast,200,1998-01-11 10:56:00
3:56 AM,53.1,51.1,93,30.10,10.0,South,5.8,-,N/A,,Overcast,180,1998-01-11 11:56:00
4:56 AM,52.0,51.1,97,30.09,10.0,South,3.5,-,N/A,,Overcast,170,1998-01-11 12:56:00
5:56 AM,52.0,51.1,97,30.10,10.0,SE,4.6,-,N/A,,Mostly Cloudy,140,1998-01-11 13:56:00
6:56 AM,52.0,51.1,97,30.11,10.0,SSE,8.1,-,N/A,,Mostly Cloudy,150,1998-01-11 14:56:00
7:56 AM,54.0,51.1,90,30.11,10.0,SSE,9.2,-,N/A,,Mostly Cloudy,150,1998-01-11 15:56:00
8:56 AM,54.0,50.0,86,30.13,10.0,SSE,9.2,-,N/A,,Overcast,150,1998-01-11 16:56:00
9:56 AM,55.0,52.0,89,30.13,10.0,SE,9.2,-,N/A,,Mostly Cloudy,140,1998-01-11 17:56:00
10:56 AM,55.0,54.0,96,30.12,4.0,SSE,10.4,-,0.00,Rain,Light Rain,150,1998-01-11 18:56:00
11:56 AM,55.0,54.0,96,30.11,5.0,SSE,9.2,21.9,0.00,,Overcast,160,1998-01-11 19:56:00
12:56 PM,55.9,55.0,97,30.07,5.0,SSE,11.5,-,0.00,Rain,Light Rain,150,1998-01-11 20:56:00
1:56 PM,57.0,55.0,93,30.05,7.0,South,13.8,-,0.00,Rain,Light Rain,170,1998-01-11 21:56:00
2:56 PM,55.9,55.0,97,30.04,4.0,South,12.7,20.7,0.03,Rain,Light Rain,170,1998-01-11 22:56:00
3:36 PM,57.2,55.4,94,30.04,4.0,South,13.8,-,0.05,Rain,Rain,170,1998-01-11 23:36:00
3:56 PM,55.9,55.0,97,30.04,4.0,SSE,9.2,23.0,0.08,Rain,Rain,160,1998-01-11 23:56:00
3:58 PM,55.4,55.4,100,30.04,2.5,South,9.2,23.0,0.01,Rain,Rain,170,1998-01-11 23:58:00
4:05 PM,55.4,55.4,100,30.05,3.0,SSE,9.2,17.3,0.03,Rain,Rain,160,1998-01-12 00:05:00
4:56 PM,55.9,55.0,97,30.04,4.0,SSE,11.5,-,0.17,Rain,Rain,160,1998-01-12 00:56:00
5:56 PM,55.9,55.9,100,30.03,3.0,South,11.5,-,0.07,Rain,Light Rain,170,1998-01-12 01:56:00
6:17 PM,57.2,55.4,94,30.03,5.0,SSE,6.9,-,0.02,Rain,Light Rain,160,1998-01-12 02:17:00
6:56 PM,57.0,55.9,96,30.03,5.0,South,10.4,-,0.05,Rain,Light Rain,180,1998-01-12 02:56:00
7:46 PM,57.2,55.4,94,30.02,4.0,SE,6.9,-,0.02,Rain,Light Rain,140,1998-01-12 03:46:00
7:56 PM,57.0,55.9,96,30.02,4.0,SSE,6.9,-,0.04,Rain,Light Rain,150,1998-01-12 03:56:00
8:56 PM,57.0,57.0,100,30.01,5.0,South,11.5,-,0.04,Rain,Light Rain,170,1998-01-12 04:56:00
9:56 PM,55.0,55.0,100,30.01,4.0,East,8.1,-,0.02,Rain,Light Rain,90,1998-01-12 05:56:00
10:56 PM,55.0,55.0,100,30.00,5.0,ESE,10.4,-,0.03,,Overcast,110,1998-01-12 06:56:00
11:56 PM,54.0,54.0,100,29.99,2.0,East,9.2,-,0.02,Rain,Light Rain,100,1998-01-12 07:56:00